Location: Aragoneses
(41.0275°N, 4.3847°W)
Time: 08:51:51
(UTC+00:00)

Tiangong - Pass Details

Date: 23 February 2026
Orbit: 381 x 391 km, 41.5° (Epoch: 7 March)

Event Time Altitude Azimuth Distance (km) Brightness Sun altitude
Rises 18:44:41 0° 274° (W) 2,258 3.9 -8.9°
Reaches altitude 10° 18:47:21 10° 250° (WSW) 1,399 2.1 -9.4°
Maximum altitude 18:49:17 15° 212° (SSW) 1,127 0.7 -9.8°
Drops below altitude 10° 18:51:13 10° 174° (S) 1,391 0.7 -10.1°
Sets 18:53:51 0° 150° (SSE) 2,237 1.5 -10.6°
